Location: Unspecified
(0.0000°N, 0.0000°E)
Time: 13:53:23
(UTC+00:00)

Envisat - Pass Details

Date: 16 May 2022
Orbit: 764 x 765 km, 98.2° (Epoch: 19 May)

Event Time Altitude Azimuth Distance (km) Brightness Sun altitude
Rises 04:32:45 0° 2° (N) 3,212 6.5 -19.7°
Reaches altitude 10° 04:35:06 10° 357° (N) 2,289 5.7 -19.2°
Maximum altitude 04:39:58 50° 282° (WNW) 969 3.2 -18.0°
Enters shadow 04:42:44 24° 218° (SW) 1,530 4.1 -17.4°
